counter customizable free hit

Jackpot

Texas Poker Multi Jackpot System

Kini Telah hadir Jackpot SUPER ROYAL FLUSH

Kini Telah hadir Jackpot 2000 (khusus table VIP keatas).

Ikutilah global jackpot yang tersedia di system kami, dengan system jackpot terbaru dan pertama di indonesia, anda dapat membeli jackpot dengan harga 100 rupiah saja dan menangkan hadiahnya hingga puluhan juta rupiah.

Jackpot bukanlah suatu keharusan untuk dibeli, namun kami memberikan suatu fitur tambahan untuk member tercinta dari www.asdpoker.com.

Terdapat tiga pilihan harga jackpot yang bisa anda beli yaitu :100,500,1000 dan 2000(khusus table VIP Keatas) rupiah.

Hadiah dari Multi jackpot system www.asdpoker.com

  1. full house x 10 harga jackpot yang anda beli.
      (contoh:anda membeli 1000 maka:1000 X10 = 10.000)
  2. four of kind x 250 harga jackpot yang anda beli
      (contoh:anda membeli 1000 maka:1000 X250 = 250.000)
  3. Straight flush x 1200
      (contoh:anda membeli 1000 maka:1000 X1200 = 1.200.000)
  4. Royal flush x 10000 harga jackpot yang anda beli
      (contoh:anda membeli 1000 maka:1000 X10000 = 10.000.000)
  5. SUPER ROYAL FLUSH x 30000 harga jackpot yang anda beli
      (contoh:anda membeli 1000 maka:1000 X30000 = 30.000.000)

Kondisi kartu

  1. full house adalah kondisi kartu dimana kartu anda dan kartu tengah dengan total 7 kartu bisa mendapatkan nilai 5 kartu dengan kombinasi 1 tris(three of kind) dan 1 pair, contoh 3 kartu 10 dan 2 kartu 5
  2. Four of kind adalah kondisi kartu dimana kartu anda dan kartu tengah dengan total 7 kartu bisa mendapatkan nilai 5 kartu dengan kombinasi 4 kartu yang sama jumlah dan 1 kartu apapun juga contoh anda mendapatkan 4 buah kartu angka 3 dan 1 kartu apapun.
  3. Staright flush adalah kondisi kartu dimana kartu anda dan kartu tengah dengan total 7 kartu bisa mendapatkan nilai 5 kartu dengan kombinasi seri / staright dengan kembang yang sama contoh : urutan kartu dari angka 5, 6, 7, 8 , 9 10 dengan kembang yg sama misalnya as hati
  4. Royal flush adalah kondisi kartu dimana kartu anda dan kartu tengah dengan total 7 kartu bisa mendapatkan nilai 5 kartu dengan kombinasi seri / staright dengan kembang yang sama tetapi kartu tersebut haruslah dimulai dari 10. contoh 10, Queen, Jack, King dan aces dengan kembang yang sama
  5. Super Royal flush adalah kondisi kartu dimana Kedua kartu anda digabung dengan 3 kartu pertama meja haruslah royal flush. contoh kartu anda 10,Queen kembang sama dan 3 kartu pertama meja adalah Jack, King dan aces dengan kembang yang sama

Demikian adalah penjelasan dari Multi Jackpot www.asdpoker.com terima kasih dan selamat bermain salam hoki dari kami

Texas Poker Jackpot Winner

TOP SUPER ROYAL FLUSH
No.TanggalNamaPriceWin
125/03 06:06LARONXSuper Royal flush15,000,000
225/03 03:19LP663HAOJUSuper Royal flush15,000,000
325/03 02:35EPZUKGE89ISuper Royal flush30,000,000
425/03 02:01ALESANDRA2Super Royal flush3,000,000
524/03 17:42Y4VOG6YD1SSuper Royal flush30,000,000
TOP ROYAL FLUSH
No.TanggalNamaPriceWin
125/03 12:21STER09Royal flush5,000,000
225/03 11:21HAMMONDRoyal flush1,000,000
325/03 11:14MSC_RT006Royal flush5,000,000
425/03 10:48DD88DD88Royal flush5,000,000
525/03 10:43AUDRI18Royal flush5,000,000
TOP STRAIGHT FLUSH
No.TanggalNamaPriceWin
125/03 12:43ADS37Straight Flush1,200,000
225/03 12:43BLACKSHOT8Straight Flush600,000
325/03 12:41ODO07Straight Flush600,000
425/03 12:40FRIVOStraight Flush1,200,000
525/03 12:39BALI_TOPStraight Flush120,000
LATEST JACKPOT
No.TanggalNamaPriceWin
125/03 12:43YUYUN2121Full House10,000
225/03 12:43DJARWO9Full House1,000
325/03 12:43KIJUL29Full House5,000
425/03 12:43ADS37Straight Flush1,200,000
525/03 12:43BLACKSHOT8Straight Flush600,000
625/03 12:43MINDEKFour Of A Kind25,000
725/03 12:43BIGUSFull House5,000
825/03 12:43KIWIL55Full House10,000
925/03 12:43PE541Full House10,000
1025/03 12:43AGS8839Four Of A Kind25,000
1125/03 12:43HARRIS73Full House5,000
1225/03 12:43BACOTBACOTFull House10,000
1325/03 12:43MONTOR88Full House5,000
1425/03 12:43JAMAL_99Full House1,000
1525/03 12:43KERE338Four Of A Kind250,000
1625/03 12:43EQUITYPBRFull House1,000
1725/03 12:43ZX8XHJ2G1GFull House5,000
1825/03 12:43FN48I5FFTLFull House5,000
1925/03 12:43G0NDUT55Full House1,000
2025/03 12:43WAKWAWHEHEFour Of A Kind125,000
2125/03 12:43VOLCANSFull House5,000
2225/03 12:43SUMIIT07Full House5,000
2325/03 12:43M4Y4B0JAW4Full House20,000
2425/03 12:43AYE08Four Of A Kind25,000
2525/03 12:43GUNKZTJFull House10,000
2625/03 12:43KINNFour Of A Kind125,000
2725/03 12:43TEMPUR1234Full House5,000
2825/03 12:43KILLDEATFull House20,000
2925/03 12:43RICKO11Full House5,000
3025/03 12:43CHIPLUK020Full House5,000
3125/03 12:42SRTM69Full House10,000
3225/03 12:42STIVUFull House1,000
3325/03 12:42FREDLY01Full House1,000
3425/03 12:42CIKODON12Full House5,000
3525/03 12:42TUYULDEWAFour Of A Kind125,000
3625/03 12:42RYOO23Four Of A Kind125,000
3725/03 12:42AFEC3DB0Full House1,000
3825/03 12:42COKROIFull House5,000
3925/03 12:42REAAL123Full House1,000
4025/03 12:42B123NDIFull House20,000
4125/03 12:42ABADIABEFull House10,000
4225/03 12:42EDDY02Full House1,000
4325/03 12:42WLYFJRPRDNFull House10,000
4425/03 12:42RABBANI55Full House5,000
4525/03 12:42NEXCHATFull House10,000
4625/03 12:42F9B99685Full House1,000
4725/03 12:42DB3FE52EFour Of A Kind125,000
4825/03 12:42TIKA0316Full House1,000
4925/03 12:42NURHSBFour Of A Kind500,000
5025/03 12:42YAHYA30Full House5,000

Domino Multi Jackpot System

Ikutilah global jackpot yang tersedia di system kami, dengan system jackpot terbaru dan pertama di indonesia, anda dapat membeli jackpot dengan harga 100 rupiah saja dan menangkan hadiahnya hingga puluhan juta rupiah.

Jackpot bukanlah suatu keharusan untuk dibeli, namun kami memberikan suatu fitur tambahan untuk member tercinta dari www.asdpoker.com.

Terdapat tiga pilihan harga jackpot yang bisa anda beli yaitu :100,500 dan 1000 rupiah.

Hadiah dari Multi jackpot system www.asdpoker.com

  1. Murni Kecil x 50 harga jackpot yang anda beli.
      (contoh:anda membeli 1000 maka:1000 X 50 = 50.000)
  2. Murni Besar x 50 harga jackpot yang anda beli
      (contoh:anda membeli 1000 maka:1000 X 50 = 50.000)
  3. BALAK x 100 harga jackpot yang anda beli
      (contoh:anda membeli 1000 maka:1000 X 100 = 100.000)
  4. ENAM DEWA x 6666 harga jackpot yang anda beli
      (contoh:anda membeli 1000 maka:1000 X 6666 = 6.666.000)

Demikian adalah penjelasan dari Multi Jackpot www.asdpoker.com terima kasih dan selamat bermain salam hoki dari kami

Domino Jackpot Winner

TOP ENAM DEWA
No.TanggalNamaPriceWin
125/03 11:52ARY78murni enam6,666,000
225/03 11:15MIRFENDOmurni enam3,333,000
325/03 08:40MAID34murni enam3,333,000
425/03 01:43CHIKAL46murni enam6,666,000
525/03 00:57SMALINGmurni enam666,600
TOP BALAK
No.TanggalNamaPriceWin
125/03 12:37XXXZ5ZXXXbalak10,000
225/03 12:27ANDR01Tbalak100,000
325/03 12:24KAJOLL12balak100,000
425/03 12:23NY0AZPFYOHbalak50,000
525/03 12:21SUKSES235balak50,000
LATEST JACKPOT
No.TanggalNamaPriceWin
125/03 12:43VRANS88murni besar25,000
225/03 12:39PERHAPI88murni besar50,000
325/03 12:38FIVESTARmurni kecil25,000
425/03 12:37XXXZ5ZXXXbalak10,000
525/03 12:34012murni kecil50,000
625/03 12:34FIRMAN4891murni kecil5,000
725/03 12:34MAGEL12murni kecil5,000
825/03 12:34SERMA01murni kecil5,000
925/03 12:33GUDESEK4murni besar5,000
1025/03 12:32IY0H1murni kecil50,000
1125/03 12:30NOVANVANOmurni besar50,000
1225/03 12:29KPJRTmurni kecil50,000
1325/03 12:29RESTY06murni kecil5,000
1425/03 12:27QDF6L1B9LPmurni besar25,000
1525/03 12:27KIYER9murni besar25,000
1625/03 12:27ANDR01Tbalak100,000
1725/03 12:26KAJOLL12murni kecil50,000
1825/03 12:26POETIH99murni besar5,000
1925/03 12:25RAFFA67murni kecil25,000
2025/03 12:24KAJOLL12balak100,000
2125/03 12:24FE2336B4murni kecil25,000
2225/03 12:23NY0AZPFYOHbalak50,000
2325/03 12:22HHB28murni kecil5,000
2425/03 12:22PL_02murni besar5,000
2525/03 12:21UWOK1213murni besar50,000
2625/03 12:21SUKSES235balak50,000
2725/03 12:21SAFIR08murni kecil5,000
2825/03 12:21WENY258balak100,000
2925/03 12:20GAM99ACEHmurni besar50,000
3025/03 12:20CH0C4Nmurni besar50,000
3125/03 12:20ZUIIImurni kecil25,000
3225/03 12:19IPUY94murni besar5,000
3325/03 12:19KANGARO002murni besar25,000
3425/03 12:18SAMLEEmurni kecil50,000
3525/03 12:17AD1NDH4murni besar5,000
3625/03 12:16PINOKIO99murni kecil5,000
3725/03 12:15ALBI1102balak10,000
3825/03 12:15NY0AZPFYOHmurni besar25,000
3925/03 12:15RANGKIANG9balak100,000
4025/03 12:15EUXF5ZMRR0murni besar50,000
4125/03 12:15KEBO170murni besar50,000
4225/03 12:14CAPT1KUSmurni besar25,000
4325/03 12:14ROZAN68murni besar50,000
4425/03 12:14ZARLImurni besar25,000
4525/03 12:12ZY8MKNIPOSmurni kecil50,000
4625/03 12:11HARIIRAWANbalak100,000
4725/03 12:11KEYKEIImurni kecil50,000
4825/03 12:11EVENT49murni kecil50,000
4925/03 12:10PL_02murni besar5,000
5025/03 12:09BOZZAA702murni kecil50,000

Ceme Multi Jackpot System

Jackpot dilihat dari gabungan kartu pemain dengan kartu bandar. Bandar harus membeli jackpot sebanyak jumlah player yang sedang duduk. Sebagai contoh bila terdapat 3 pemain duduk bermain, dan bandar memutuskan untuk membeli jackpot Rp 1.000, maka pada periode tersebut bandar akan membeli jackpot sebanyak 3xRp1.000 = Rp3.000.

Jackpot bukanlah suatu keharusan untuk dibeli, namun kami memberikan suatu fitur tambahan untuk member tercinta dari www.asdpoker.com.

Terdapat tiga pilihan harga jackpot yang bisa anda beli yaitu :100,500 dan 1000 rupiah.

Hadiah dari Multi jackpot system www.asdpoker.com

  1. Murni Kecil x 50 harga jackpot yang anda beli.
      (contoh:anda membeli 1000 maka:1000 X 50 = 50.000)
  2. Murni Besar x 50 harga jackpot yang anda beli
      (contoh:anda membeli 1000 maka:1000 X 50 = 50.000)
  3. BALAK x 200 harga jackpot yang anda beli
      (contoh:anda membeli 1000 maka:1000 X 200 = 200.000)
  4. ENAM DEWA x 6666 harga jackpot yang anda beli
      (contoh:anda membeli 1000 maka:1000 X 6666 = 6.666.000)

Demikian adalah penjelasan dari Multi Jackpot www.asdpoker.com terima kasih dan selamat bermain salam hoki dari kami

Ceme Jackpot Winner

TOP ENAM DEWA
No.TanggalNamaPriceWin
125/03 12:38VIOO807murni enam6,666,000
225/03 12:23CO044GWFNOmurni enam666,600
325/03 12:10DARREN14murni enam6,666,000
425/03 11:43AGH2murni enam6,666,000
525/03 11:43ALVIAN0404murni enam6,666,000
TOP BALAK
No.TanggalNamaPriceWin
125/03 12:43DEDIUNYILbalak200,000
225/03 12:43FRISKENbalak200,000
325/03 12:43AYAUAZbalak100,000
425/03 12:42FRISKENbalak200,000
525/03 12:41DWBTID46balak200,000
LATEST JACKPOT
No.TanggalNamaPriceWin
125/03 12:43DEDIUNYILbalak200,000
225/03 12:43DETI133murni kecil25,000
325/03 12:43SLEM888murni kecil50,000
425/03 12:43SCREAT88murni kecil25,000
525/03 12:43FRISKENbalak200,000
625/03 12:43AYAUAZbalak100,000
725/03 12:43FRISKENmurni besar50,000
825/03 12:43DARWIN95murni besar25,000
925/03 12:43AS88STARmurni besar25,000
1025/03 12:42CIPUYYYmurni kecil50,000
1125/03 12:42JDO69CUOVJmurni besar50,000
1225/03 12:42FRISKENbalak200,000
1325/03 12:42PARGOGOImurni besar25,000
1425/03 12:41ARIFIN1STmurni besar5,000
1525/03 12:41UWAWWmurni besar5,000
1625/03 12:41DWBTID46balak200,000
1725/03 12:41WAKGUHmurni kecil50,000
1825/03 12:40PUYOL1919murni besar50,000
1925/03 12:40U06CZUK4FJmurni besar25,000
2025/03 12:40DE8ID8T1ELmurni besar50,000
2125/03 12:40DONALD_842murni besar25,000
2225/03 12:40D0G0L6666murni kecil50,000
2325/03 12:40APIUPIUmurni kecil50,000
2425/03 12:40NAV55murni kecil25,000
2525/03 12:40FRISKENmurni kecil50,000
2625/03 12:40ZADINmurni besar50,000
2725/03 12:39EKA010murni kecil50,000
2825/03 12:39MUKHLIS111murni kecil50,000
2925/03 12:39KTSKYXLYCKbalak200,000
3025/03 12:39ACEHJPbalak200,000
3125/03 12:39SEHAN212murni kecil50,000
3225/03 12:39FBR322murni kecil5,000
3325/03 12:39FRISKENbalak100,000
3425/03 12:39VALBE_HEbalak100,000
3525/03 12:39VIOO807murni kecil50,000
3625/03 12:39ARTO234murni besar25,000
3725/03 12:38VIOO807murni enam6,666,000
3825/03 12:38ZAMRUT01murni kecil50,000
3925/03 12:38MIRFENDOmurni kecil50,000
4025/03 12:38N34Rmurni besar50,000
4125/03 12:38DARWIN95murni kecil25,000
4225/03 12:37YHAKUZAmurni besar50,000
4325/03 12:37DEDIUNYILmurni kecil50,000
4425/03 12:37DE8ID8T1ELmurni kecil50,000
4525/03 12:37DEVA421murni kecil50,000
4625/03 12:37PBJ18murni besar25,000
4725/03 12:37JAREVKImurni besar50,000
4825/03 12:37FRISKENmurni besar25,000
4925/03 12:37INDIHOMEKLmurni besar5,000
5025/03 12:37DHENY98murni kecil25,000